User: anonymous   Login
Location: Unspecified
(0.0000°N, 0.0000°E)
Time: 06:39:52
(UTC+00:00)
Language:

Kosmos-1725 - Orbit

View from above orbital plane
View from above orbital plane
View from above satellite
View from above satellite

Ground track
Ground track

The orbit data is extracted from the following two-line orbital elements,

1 16493U 86005A   18111.47564418  .00000055  00000-0  42064-4 0  9993
2 16493  82.9347 231.7642 0021654 213.6402 216.9200 13.74636827663179
Epoch (UTC): 21 April 2018 11:24:55
Eccentricity: 0.0021654
inclination: 82.9347°
perigee height: 967 km
apogee height: 999 km
right ascension of ascending node: 231.7642°
argument of perigee: 213.6402°
revolutions per day: 13.74636827
mean anomaly at epoch: 216.9200°
orbit number at epoch: 66317

The dashed part of the orbit path shows where the satellite is in the earth's shadow,  

DLR